Notices

What's New in latest Release from April 7th, 2021:

- Updated Glossary, including Speed of Maximum Gust, and Total Hourly Precipitation

- Updated national and regional climate services offices contacts and prices information

- Addition of station inventory lists for 1981-2010, 1971-2000, and 1961-1990 Normals.

If you haven't already, please take our survey and provide feedback about our website: https://eccc.sondage-survey.ca/f/LanguageSelection.aspx?s=442ca660-fcf1-47c0-95a9-59707d6fd709

Hourly Data Report for August 17, 2017

TORONTO CITY
ONTARIO

43°40'00.000" N
79°24'00.000" W
112.50 m
6158355
71508
XTO

Download Data

Hourly Data (August 2017)
Hourly Data Report for August 17, 2017
TIME
LST
Temp Definition
°C
Dew Point Definition
°C
Rel Hum Definition
%
Precip. Amount Definition
mm

Wind Dir Definition
10's deg

Wind Spd Definition
km/h
Visibility Definition
km
Stn Press Definition
kPa
Hmdx Definition


Wind Chill Definition


Weather Definition


00:00 20.0 15.7 76 0.0 LegendMM LegendMM   100.44     LegendNANA
01:00 19.4 16.0 81 0.0 LegendMM LegendMM   100.43     LegendNANA
02:00 19.6 15.9 79 0.0 LegendMM LegendMM   100.36     LegendNANA
03:00 19.2 15.7 80 0.0 LegendMM LegendMM   100.32     LegendNANA
04:00 18.6 15.0 80 0.0 LegendMM LegendMM   100.28     LegendNANA
05:00 18.0 15.2 84 0.0 LegendMM LegendMM   100.31     LegendNANA
06:00 19.0 14.9 77 0.0 LegendMM LegendMM   100.29     LegendNANA
07:00 20.4 14.9 71 0.0 LegendMM LegendMM   100.31     LegendNANA
08:00 21.2 15.3 69 0.0 LegendMM LegendMM   100.25 25   LegendNANA
09:00 21.9 15.4 67 0.0 LegendMM LegendMM   100.24 26   LegendNANA
10:00 22.9 14.9 61 0.0 LegendMM LegendMM   100.21 27   LegendNANA
11:00 22.3 16.2 68 0.0 LegendMM LegendMM   100.17 27   LegendNANA
12:00 22.1 14.7 63 0.0 LegendMM LegendMM   100.09 26   LegendNANA
13:00 21.6 14.0 62 0.0 LegendMM LegendMM   99.99 25   LegendNANA
14:00 21.0 14.9 68 0.0 LegendMM LegendMM   99.94 25   LegendNANA
15:00 20.0 15.9 77 0.0 LegendMM LegendMM   99.89 25   LegendNANA
16:00 19.4 16.5 84 0.8 LegendMM LegendMM   99.75     LegendNANA
17:00 18.8 16.2 85 3.4 LegendMM LegendMM   99.73     LegendNANA
18:00 19.3 16.6 85 1.2 LegendMM LegendMM   99.64     LegendNANA
19:00 19.7 16.9 84 0.3 LegendMM LegendMM   99.54     LegendNANA
20:00 20.1 17.2 83 0.0 LegendMM LegendMM   99.49 26   LegendNANA
21:00 20.1 18.2 89 2.5 LegendMM LegendMM   99.47 26   LegendNANA
22:00 20.9 19.3 91 0.0 LegendMM LegendMM   99.40 28   LegendNANA
23:00 21.3 19.9 91 0.0 LegendMM LegendMM   99.32 29   LegendNANA

Notes on Data Quality.

Legend

  • E = Estimated
  • M = Missing
  • NA = Not Available*
  • [empty] = Indicates an unobserved value
Date modified: